Gold Coast Seaway Observation History
Time Wind Speed Temp Pressure Rel. Hum Rain
14/09:30am SW 4-6 kts 19.4°c 1014.0 hPa 44% 0.0mm
14/09:00am W 4-6 kts 18.7°c 1013.8 hPa 50% 0.0mm
14/08:30am WNW 6-7 kts 17.7°c 1013.7 hPa 51% 0.0mm
14/08:00am WNW 5-8 kts 16.6°c 1013.6 hPa 56% 0.0mm
14/07:30am WNW 7-10 kts 15.5°c 1013.2 hPa 60% 0.0mm
14/07:00am WNW 6-9 kts 14.6°c 1013.0 hPa 64% 0.0mm
14/06:30am WNW 6-7 kts 14.1°c 1012.5 hPa 67% 0.0mm
14/06:00am WNW 4-7 kts 12.0°c 1012.3 hPa 82% 0.0mm
14/05:30am CALM 0 kts 10.8°c 1012.0 hPa 78% 0.0mm
14/05:00am W 1-3 kts 12.1°c 1011.7 hPa 72% 0.0mm
14/04:30am WNW 4-6 kts 13.4°c 1011.3 hPa 71% 0.0mm
14/04:00am WNW 5-7 kts 14.5°c 1011.1 hPa 68% 0.0mm
14/03:30am WNW 5-6 kts 13.8°c 1011.1 hPa 71% 0.0mm
14/03:00am W 5-6 kts 13.7°c 1011.0 hPa 68% 0.0mm
14/02:30am W 5-8 kts 14.3°c 1011.3 hPa 66% 0.0mm
14/02:00am WNW 5-7 kts 15.1°c 1011.5 hPa 68% 0.0mm
14/01:30am NW 5-7 kts 14.6°c 1011.7 hPa 73% 0.0mm
14/01:00am CALM 0-4 kts 12.9°c 1011.7 hPa 70% 0.0mm
14/12:30am WNW 2-5 kts 14.4°c 1011.8 hPa 63% 0.0mm
14/12:00am WNW 6-8 kts 16.0°c 1011.8 hPa 60% 0.0mm
Time Wind Speed Temp Pressure Rel. Hum Rain
13/11:30pm WNW 6-8 kts 16.7°c 1011.9 hPa 56% 0.0mm
13/11:00pm W 5-7 kts 16.0°c 1012.1 hPa 59% 0.0mm
13/10:30pm W 5-7 kts 16.4°c 1012.1 hPa 58% 0.0mm
13/10:00pm W 4-5 kts 15.5°c 1012.4 hPa 61% 0.0mm
13/09:30pm W 4-6 kts 16.8°c 1012.5 hPa 55% 0.0mm
13/09:00pm W 6-9 kts 17.5°c 1012.5 hPa 53% 0.0mm
13/08:30pm WNW 6-9 kts 17.7°c 1012.5 hPa 53% 0.0mm
13/08:00pm WNW 8-10 kts 18.1°c 1012.2 hPa 51% 0.0mm
13/07:30pm W 7-11 kts 18.5°c 1011.9 hPa 47% 0.0mm
13/07:00pm W 8-13 kts 19.0°c 1011.7 hPa 45% 0.0mm
13/06:30pm W 9-12 kts 19.6°c 1011.7 hPa 41% 0.0mm
13/06:00pm WNW 10-14 kts 20.3°c 1011.2 hPa 38% 0.0mm
13/05:30pm WNW 7-12 kts 20.5°c 1010.8 hPa 43% 0.0mm
13/05:00pm WNW 5-8 kts 21.3°c 1010.5 hPa 38% 0.0mm
13/04:30pm W 10-15 kts 22.8°c 1010.2 hPa 31% 0.0mm
13/04:00pm W 9-15 kts 23.6°c 1009.8 hPa 35% 0.0mm
13/03:30pm W 9-14 kts 24.1°c 1009.6 hPa 38% 0.0mm
13/03:00pm W 9-15 kts 24.3°c 1009.7 hPa 38% 0.0mm
13/02:30pm W 9-13 kts 24.6°c 1009.8 hPa 38% 0.0mm
13/02:00pm W 10-16 kts 24.6°c 1010.0 hPa 42% 0.0mm
13/01:30pm WNW 10-15 kts 24.6°c 1010.1 hPa 50% 0.0mm
13/01:00pm W 11-17 kts 24.1°c 1010.5 hPa 47% 0.0mm
13/12:30pm W 13-22 kts 23.9°c 1010.8 hPa 49% 0.0mm
13/12:00pm W 11-17 kts 23.9°c 1011.2 hPa 51% 0.0mm
13/11:30am W 12-17 kts 23.9°c 1011.6 hPa 51% 0.0mm
13/11:00am W 10-14 kts 23.6°c 1011.8 hPa 55% 0.0mm
13/10:30am W 9-14 kts 22.6°c 1012.4 hPa 58% 0.0mm
13/10:00am WSW 7-13 kts 22.5°c 1012.7 hPa 65% 0.0mm
13/09:30am NW 6-8 kts 21.5°c 1012.8 hPa 72% 0.0mm
13/09:00am NW 6-9 kts 20.9°c 1012.9 hPa 74% 3.4mm
13/08:30am W 8-11 kts 20.3°c 1013.0 hPa 74% 3.4mm
13/08:00am W 8-12 kts 19.5°c 1013.1 hPa 78% 3.4mm
13/07:30am W 4-7 kts 17.7°c 1012.8 hPa 88% 3.4mm
13/07:00am WNW 5-6 kts 17.5°c 1012.8 hPa 89% 3.4mm
13/06:30am W 4-5 kts 17.2°c 1012.6 hPa 88% 3.4mm
13/06:00am W 4-5 kts 17.0°c 1012.6 hPa 88% 3.4mm
13/05:30am W 4-5 kts 17.6°c 1012.6 hPa 88% 3.4mm
13/05:00am W 3-4 kts 17.7°c 1012.8 hPa 87% 3.4mm
13/04:30am WSW 4-5 kts 18.0°c 1012.7 hPa 87% 3.4mm
13/04:00am WSW 5-7 kts 18.0°c 1012.7 hPa 88% 3.4mm
13/03:30am WSW 5-8 kts 17.9°c 1012.7 hPa 89% 3.4mm
13/03:00am SW 4-6 kts 18.0°c 1012.7 hPa 89% 3.4mm
13/02:30am WSW 4-6 kts 18.1°c 1013.1 hPa 89% 3.4mm
13/02:00am WSW 4-5 kts 18.3°c 1013.5 hPa 88% 3.4mm
13/01:30am W 4-5 kts 18.5°c 1013.9 hPa 88% 3.4mm
13/01:00am W 5-6 kts 18.8°c 1014.1 hPa 88% 3.4mm
13/12:30am WSW 4-5 kts 18.8°c 1014.1 hPa 88% 3.4mm
13/12:00am WSW 4-6 kts 18.9°c 1014.4 hPa 87% 3.4mm
Time Wind Speed Temp Pressure Rel. Hum Rain
12/11:30pm CALM 0 kts 19.0°c 1014.7 hPa 87% 3.4mm
12/11:00pm W 4-5 kts 19.2°c 1015.1 hPa 87% 3.4mm
12/10:30pm SW 4-5 kts 19.0°c 1015.3 hPa 86% 3.4mm
12/10:00pm W 3-6 kts 19.3°c 1015.5 hPa 85% 3.4mm
12/09:30pm WSW 5-7 kts 18.9°c 1015.4 hPa 82% 3.4mm
12/09:00pm WSW 4-5 kts 18.8°c 1015.3 hPa 84% 3.4mm
12/08:30pm CALM 0 kts 18.4°c 1015.4 hPa 85% 3.4mm
12/08:00pm CALM 0 kts 18.8°c 1015.5 hPa 83% 3.4mm
12/07:30pm NE 5-10 kts 19.2°c 1015.2 hPa 79% 3.4mm
12/07:00pm NE 15-18 kts 19.8°c 1015.6 hPa 78% 3.4mm
12/06:30pm E 16-19 kts 20.7°c 1015.7 hPa 89% 3.2mm
12/06:00pm SE 11-16 kts 20.7°c 1015.7 hPa 87% 2.4mm
12/05:30pm S 8-11 kts 21.1°c 1016.4 hPa 83% 0.0mm
12/05:00pm S 6-9 kts 21.2°c 1015.8 hPa 83% 0.0mm
12/04:30pm SSE 11-15 kts 21.4°c 1015.2 hPa 83% 0.0mm
12/04:00pm S 8-11 kts 21.4°c 1015.2 hPa 83% 0.0mm
12/03:30pm SSE 8-10 kts 22.1°c 1015.1 hPa 80% 0.0mm
12/03:00pm SE 8-9 kts 22.2°c 1014.8 hPa 78% 0.0mm
12/02:30pm SE 8-9 kts 22.7°c 1015.0 hPa 77% 0.0mm
12/02:00pm SE 7-10 kts 22.9°c 1015.3 hPa 77% 0.0mm
12/01:30pm SSE 7-9 kts 23.5°c 1015.3 hPa 76% 0.0mm
12/01:00pm SSE 8-11 kts 23.1°c 1015.4 hPa 76% 0.0mm
12/12:30pm SE 9-11 kts 22.7°c 1015.9 hPa 74% 0.0mm
12/12:00pm SE 5-7 kts 23.6°c 1016.5 hPa 77% 0.0mm
12/11:30am SSE 4-6 kts 22.6°c 1017.1 hPa 75% 0.0mm
12/11:00am SSW 4-6 kts 22.5°c 1017.5 hPa 76% 0.0mm
12/10:30am SW 5-6 kts 21.8°c 1017.9 hPa 77% 0.0mm
12/10:00am SW 5-7 kts 21.2°c 1018.1 hPa 79% 0.0mm
12/09:30am SW 5-7 kts 20.8°c 1018.2 hPa 81% 0.0mm
12/09:00am SW 6-8 kts 20.4°c 1018.1 hPa 83% 21.0mm
12/08:30am SW 4-7 kts 20.2°c 1018.1 hPa 84% 21.0mm
12/08:00am SW 4-6 kts 19.7°c 1018.0 hPa 85% 21.0mm
12/07:30am SW 5-7 kts 18.9°c 1017.3 hPa 88% 21.0mm
12/07:00am WSW 4-6 kts 18.2°c 1017.0 hPa 89% 21.0mm
12/06:30am SSW 4-5 kts 17.9°c 1016.5 hPa 89% 21.0mm
12/06:00am SSW 5-6 kts 17.9°c 1016.6 hPa 89% 21.0mm
12/05:30am SW 5-7 kts 18.1°c 1016.7 hPa 89% 21.0mm
12/05:00am WSW 2-5 kts 18.1°c 1016.7 hPa 89% 21.0mm
12/04:30am W 4-7 kts 18.6°c 1016.8 hPa 88% 21.0mm
12/04:00am SSE 7-10 kts 18.6°c 1016.5 hPa 88% 21.0mm
12/03:30am ESE 7-9 kts 18.7°c 1017.0 hPa 88% 20.6mm
12/03:00am SSE 8-11 kts 18.6°c 1017.3 hPa 90% 19.8mm
12/02:30am SSW 11-16 kts 17.9°c 1016.1 hPa 90% 19.2mm
12/02:00am SSW 14-22 kts 18.4°c 1017.2 hPa 84% 13.4mm
12/01:30am SE 11-16 kts 19.6°c 1016.6 hPa 82% 13.4mm
12/01:00am E 10-19 kts 19.8°c 1016.3 hPa 84% 13.4mm
12/12:30am WNW 3-7 kts 19.5°c 1016.6 hPa 82% 12.2mm
12/12:00am N 1-5 kts 22.2°c 1017.2 hPa 87% 4.4mm